[[{"header":{"parameterUnit":"m.s-1","parameterCategory":1,"la1":30.2991,"la2":30.254,"lo1":-89.0895,"lo2":-89.0444,"dy":0.0017,"dx":0.0017,"nx":28,"ny":28,"refTime":"2025-03-15T21:00:00:Z","depth":0,"parameterNumber":2,"parameterNumberName":"U-component_of_WINDS"},"data":[0,0,0,0,0,0,0,0,0,0,0,0,0,0,0,0,0,0,0,0,0,0,0,0,0,0,0,0,0,0,0,0,0,0,0,0,0,0,0,0,0,0,0,0,0,0,0,0,0,0,0,0,0,0,0,0,0,0,5.7759,5.776,0,5.7888,5.7889,5.7891,5.7838,5.7835,5.7832,5.7829,5.7962,5.7968,5.7975,0,0,0,0,0,0,0,0,0,0,0,0,0,5.747,5.7475,5.7759,5.776,5.7762,5.7887,5.7889,5.7891,5.7839,5.7835,5.7831,5.7828,5.796,5.7968,5.7975,0,0,0,0,0,0,0,0,0,0,0,0,0,5.7597,5.7477,5.7758,5.7751,5.7751,5.7887,5.7889,5.7891,5.7839,5.7835,5.783,5.7826,5.7958,5.7967,5.7976,5.8127,0,0,5.8006,5.801,0,0,0,0,0,0,0,0,5.759,5.7607,5.775,5.7752,5.7753,5.7842,5.7836,5.7971,5.7841,5.7806,5.7829,5.7824,5.7926,5.7938,5.7972,5.8133,5.8139,5.8006,5.8012,5.8016,5.8019,0,0,0,0,0,0,0,5.7581,5.7602,5.781,5.7753,5.7754,5.7742,5.7755,5.7861,5.789,5.7809,5.7805,5.7821,5.7926,5.7963,5.7975,5.8141,5.8006,5.8015,5.8021,5.8024,5.8436,5.844,0,0,0,0,0,0,5.7572,5.7595,5.7806,5.7814,5.7658,5.7751,5.7765,5.7818,5.7889,5.7895,5.7825,5.7818,5.7949,5.7964,5.7979,5.8162,5.8016,5.8025,5.8031,5.843,5.8437,5.8442,0,0,0,0,0,0,5.7566,5.7591,5.78,5.7703,5.7729,5.7761,5.782,5.7823,5.786,5.7901,5.7906,5.7858,5.7946,5.7966,5.8091,5.8166,5.803,5.8038,5.8424,5.8432,5.844,5.8528,0,0,0,0,0,0,5.7557,5.7589,5.7646,5.7705,5.7734,5.791,5.7825,5.7829,5.7877,5.7869,5.7933,5.7939,5.7944,5.8077,5.8101,5.8177,5.8046,5.8418,5.8428,5.8437,5.8519,5.8538,5.8555,0,0,0,0,0,5.7547,5.7665,5.7649,5.7675,5.7806,5.7914,5.7931,5.7933,5.7883,5.7941,5.7968,5.7937,5.8154,5.8091,5.8117,5.8197,5.8413,5.8425,5.8436,5.8511,5.8534,5.8554,0,0,0,0,0,0,5.7614,5.7673,5.7655,5.7796,5.785,5.7905,5.7978,5.7958,5.8028,5.8018,5.8019,5.8034,5.8164,5.8193,5.8121,5.8348,5.8276,5.8294,5.8324,5.8347,5.8364,5.8355,5.8054,0,0,0,0,0,5.7645,5.7727,5.7774,5.7894,5.7922,5.7946,5.7993,5.799,5.8047,5.807,5.8105,5.8162,5.8243,5.8297,5.8373,5.8523,5.8537,5.8591,5.8609,5.8624,5.8639,5.8723,5.8748,5.8481,5.848,5.848,0,0,5.771,5.7752,5.7804,5.7908,5.795,5.8037,5.7965,5.8059,5.8123,5.8084,5.8205,5.8234,5.8297,5.8436,5.8499,5.8464,5.8716,5.8639,5.865,5.8657,5.8737,5.8762,5.8785,5.8488,5.8487,5.8486,0,0,5.7872,5.7912,5.8017,5.8061,5.8125,5.8141,5.8166,5.8225,5.8242,5.8364,5.8337,5.8414,5.8553,5.86,5.8642,5.8826,5.8801,5.8851,5.8945,5.9026,5.9047,5.9066,5.9133,5.9157,5.8866,5.8866,5.8866,0,5.7944,5.8072,5.8073,5.817,5.8217,5.8187,5.8294,5.8337,5.8423,5.8458,5.8417,5.8593,5.8634,5.8784,5.8829,5.8864,5.8894,5.8843,5.9044,5.9063,5.908,5.9144,5.9169,5.8872,5.8871,5.8871,5.887,0,5.8159,5.8249,5.8326,5.8411,5.8467,5.8569,5.8586,5.8643,5.8637,5.8657,5.8783,5.8831,5.8917,5.8953,5.8947,5.9104,5.9081,5.9043,5.8971,5.9111,5.9172,5.9196,5.888,5.8878,5.8876,5.8875,0,0,5.8365,5.8451,5.848,5.8519,5.8589,5.8659,5.876,5.8846,5.8896,5.8957,5.9043,5.9163,5.9129,5.9177,5.9177,5.9248,5.9393,5.9202,5.9203,5.9236,5.9571,5.96,5.9628,5.9377,5.9382,5.9386,5.9566,0,5.8534,5.871,5.8715,5.8878,5.8962,5.8935,5.9023,5.9077,5.9099,5.9175,5.9199,5.9285,5.9233,5.9262,5.9332,5.9361,5.946,5.9348,5.9458,5.9462,5.9443,5.9659,5.9689,5.9857,5.9589,5.9593,5.9596,0,5.8753,5.8823,5.8994,5.9054,5.909,5.9169,5.9249,5.9321,5.9382,5.9394,5.9449,5.9439,5.9544,5.9469,5.9615,5.9538,5.9584,5.9605,5.9612,5.9622,5.9538,5.9676,5.991,5.9936,5.9633,5.963,5.9627,0,5.8888,5.9024,5.9145,5.9179,5.9253,5.9309,5.9343,5.9399,5.9451,5.9522,5.9556,5.9637,5.9682,5.9746,5.9759,5.9703,5.9906,5.9832,5.992,5.992,5.9963,5.996,6.0209,5.9992,5.9992,5.9991,5.9991,0,5.9076,5.9182,5.9206,5.9281,5.9399,5.9405,5.9522,5.9552,5.9603,5.9683,5.9666,5.9742,5.9754,5.9833,5.9844,5.9964,5.9984,5.9997,5.9999,5.9999,5.9998,6.0029,6.0018,5.9998,5.9997,5.9995,5.9994,0,5.9246,5.9267,5.9396,5.9456,5.9474,5.9559,5.961,5.9682,5.9703,5.9806,5.983,5.9863,5.9956,5.9976,6.0085,6.0093,6.0236,6.0226,6.0215,6.0215,6.0302,6.0294,6.0579,6.0618,6.0376,6.0378,6.038,0,5.9365,5.9446,5.9515,5.9567,5.9604,5.9688,5.9742,5.9751,5.9808,5.9885,5.9948,6.0039,6.0112,6.0262,6.0297,6.0382,6.0374,6.0468,6.0386,6.0385,6.0377,6.0372,6.0381,6.0484,6.0486,6.0489,6.049,0,5.9574,5.958,5.9657,5.9739,5.9804,5.9868,5.993,5.9974,5.9993,6.0057,6.0152,6.0209,6.0322,6.0414,6.0499,6.0534,6.0517,6.0516,6.0541,6.0542,6.0533,6.054,6.0259,6.0509,6.0507,6.0506,6.0505,6.0504,5.9722,5.9794,5.9854,5.9941,5.9989,6.0048,6.0119,6.015,6.0229,6.0321,6.0323,6.0427,6.0489,6.0601,6.0643,6.0725,6.0696,6.0731,6.0741,6.075,6.0758,6.052,6.0741,6.074,6.074,6.0739,6.0739,0,5.9931,5.9969,6.0049,6.0137,6.0206,6.0183,6.0251,6.0311,6.0403,6.0462,6.0535,6.0645,6.0734,6.0777,6.0866,6.0924,6.0918,6.0947,6.0943,6.0952,6.0779,6.0749,6.095,6.095,6.095,6.095,6.095,6.095,6.0048,6.0168,6.0183,6.0328,6.0365,6.0467,6.0508,6.0563,6.061,6.0734,6.0808,6.0836,6.0889,6.0982,6.1063,6.1074,6.1107,6.1141,6.1147,6.0985,6.0963,6.0943,6.0915,6.1148,6.1148,6.1313,6.1315,6.1316]},{"header":{"parameterUnit":"m.s-1","parameterCategory":1,"la1":30.2991,"la2":30.254,"lo1":-89.0895,"lo2":-89.0444,"dy":0.0017,"dx":0.0017,"nx":28,"ny":28,"refTime":"2025-03-15T21:00:00:Z","depth":0,"parameterNumber":3,"parameterNumberName":"V-component_of_WINDS"},"data":[0,0,0,0,0,0,0,0,0,0,0,0,0,0,0,0,0,0,0,0,0,0,0,0,0,0,0,0,0,0,0,0,0,0,0,0,0,0,0,0,0,0,0,0,0,0,0,0,0,0,0,0,0,0,0,0,0,0,-5.9972,-5.9973,0,-6.0109,-6.011,-6.0112,-6.0087,-6.0084,-6.0082,-6.0079,-6.0218,-6.0223,-6.0229,0,0,0,0,0,0,0,0,0,0,0,0,0,-5.9687,-5.9693,-5.9972,-5.9973,-5.9975,-6.0108,-6.011,-6.0112,-6.0087,-6.0084,-6.0081,-6.0078,-6.0216,-6.0223,-6.023,0,0,0,0,0,0,0,0,0,0,0,0,0,-5.9816,-5.9695,-5.9971,-5.9979,-5.9981,-6.0108,-6.011,-6.0113,-6.0088,-6.0084,-6.008,-6.0077,-6.0213,-6.0222,-6.0231,-6.0359,0,0,-6.0258,-6.0262,0,0,0,0,0,0,0,0,-5.9809,-5.9827,-5.9976,-5.9978,-5.9981,-6.0077,-6.0061,-6.0195,-6.0089,-6.0047,-6.0079,-6.0075,-6.0174,-6.0186,-6.0219,-6.0365,-6.0371,-6.0259,-6.0264,-6.0268,-6.0271,0,0,0,0,0,0,0,-5.98,-5.9821,-6.0026,-5.9978,-5.9981,-5.9975,-5.9989,-6.0086,-6.0129,-6.005,-6.0049,-6.0066,-6.0174,-6.0211,-6.0222,-6.0373,-6.0259,-6.0267,-6.0272,-6.0276,-6.0633,-6.0637,0,0,0,0,0,0,-5.9789,-5.9813,-6.0021,-6.003,-5.9884,-5.9983,-5.9999,-6.005,-6.0128,-6.0136,-6.0069,-6.0064,-6.0197,-6.0212,-6.0227,-6.0383,-6.0268,-6.0276,-6.0282,-6.0629,-6.0634,-6.0638,0,0,0,0,0,0,-5.9783,-5.9808,-6.0016,-5.9921,-5.9947,-5.9992,-6.0049,-6.0054,-6.0091,-6.0142,-6.0149,-6.0098,-6.0195,-6.0215,-6.0327,-6.0387,-6.028,-6.0289,-6.0624,-6.063,-6.0636,-6.0695,0,0,0,0,0,0,-5.9775,-5.9806,-5.9855,-5.9923,-5.9953,-6.0114,-6.0053,-6.006,-6.0106,-6.0102,-6.0171,-6.0179,-6.0194,-6.0314,-6.0336,-6.0398,-6.0296,-6.0618,-6.0626,-6.0634,-6.0688,-6.0702,-6.0715,0,0,0,0,0,-5.9765,-5.9866,-5.9858,-5.9883,-6.0015,-6.0117,-6.0134,-6.0149,-6.0111,-6.0161,-6.0194,-6.0177,-6.0377,-6.0325,-6.035,-6.0415,-6.0615,-6.0624,-6.0633,-6.0682,-6.07,-6.0715,0,0,0,0,0,0,-5.9803,-5.9874,-5.9866,-5.9992,-6.0049,-6.0113,-6.0176,-6.0168,-6.0236,-6.0228,-6.0244,-6.026,-6.0374,-6.0406,-6.0347,-6.0544,-6.049,-6.0505,-6.0519,-6.0536,-6.055,-6.0539,-6.0303,0,0,0,0,0,-5.9826,-5.9903,-5.9962,-6.0067,-6.0096,-6.0131,-6.0176,-6.0183,-6.0242,-6.0266,-6.0307,-6.0365,-6.0441,-6.049,-6.0563,-6.0693,-6.0707,-6.075,-6.0763,-6.0774,-6.0787,-6.0858,-6.0878,-6.0669,-6.0668,-6.0668,0,0,-5.9874,-5.9923,-5.9971,-6.0076,-6.0121,-6.02,-6.0152,-6.0238,-6.0297,-6.0279,-6.0388,-6.042,-6.0485,-6.0607,-6.0663,-6.0637,-6.0848,-6.0786,-6.0794,-6.0801,-6.087,-6.089,-6.0907,-6.0675,-6.0674,-6.0673,0,0,-6.0003,-6.0048,-6.0141,-6.0187,-6.0256,-6.0279,-6.0301,-6.0367,-6.0388,-6.0498,-6.0487,-6.0557,-6.0687,-6.0735,-6.0776,-6.0925,-6.0912,-6.0948,-6.1019,-6.1088,-6.1105,-6.1119,-6.1173,-6.1192,-6.096,-6.096,-6.096,0,-6.0054,-6.0174,-6.0189,-6.0277,-6.0324,-6.0313,-6.0407,-6.0451,-6.054,-6.0572,-6.0543,-6.0707,-6.075,-6.0883,-6.092,-6.0954,-6.098,-6.094,-6.1101,-6.1116,-6.113,-6.1181,-6.1201,-6.0964,-6.0964,-6.0963,-6.0963,0,-6.0234,-6.0317,-6.0384,-6.0472,-6.0526,-6.0616,-6.0645,-6.0699,-6.0701,-6.0728,-6.084,-6.0891,-6.0975,-6.1007,-6.101,-6.1141,-6.1123,-6.1098,-6.1044,-6.1154,-6.1202,-6.1222,-6.097,-6.0968,-6.0967,-6.0966,0,0,-6.0389,-6.0485,-6.0509,-6.0549,-6.0625,-6.069,-6.078,-6.0863,-6.0908,-6.097,-6.1047,-6.1158,-6.1135,-6.1182,-6.119,-6.1252,-6.1367,-6.1219,-6.122,-6.1244,-6.1515,-6.1534,-6.1557,-6.1359,-6.1363,-6.1366,-6.151,0,-6.0525,-6.0685,-6.0702,-6.0845,-6.0923,-6.0914,-6.0993,-6.1048,-6.1076,-6.1145,-6.1175,-6.1254,-6.1218,-6.1246,-6.1306,-6.134,-6.1421,-6.133,-6.143,-6.1433,-6.1414,-6.1582,-6.1602,-6.1735,-6.1529,-6.1532,-6.1534,0,-6.0705,-6.0773,-6.0925,-6.0991,-6.1024,-6.1095,-6.1172,-6.1239,-6.1302,-6.1317,-6.1371,-6.1371,-6.1465,-6.1408,-6.1537,-6.1474,-6.1516,-6.1539,-6.1545,-6.1554,-6.149,-6.1596,-6.1778,-6.1798,-6.1564,-6.1562,-6.156,0,-6.0803,-6.0933,-6.1041,-6.1075,-6.1155,-6.1205,-6.1241,-6.13,-6.1349,-6.1417,-6.1449,-6.1526,-6.1569,-6.1629,-6.165,-6.1607,-6.1778,-6.1723,-6.1794,-6.1793,-6.183,-6.1827,-6.2021,-6.1857,-6.1857,-6.1857,-6.1856,0,-6.0954,-6.1046,-6.1087,-6.1153,-6.1257,-6.1276,-6.1378,-6.1411,-6.1464,-6.1536,-6.1533,-6.1601,-6.1625,-6.1698,-6.1715,-6.1819,-6.1838,-6.1854,-6.1857,-6.1854,-6.1852,-6.1881,-6.1873,-6.1862,-6.1861,-6.186,-6.1859,0,-6.1081,-6.1112,-6.1228,-6.1295,-6.1314,-6.1388,-6.1445,-6.1509,-6.1535,-6.1627,-6.165,-6.1692,-6.1777,-6.1804,-6.1906,-6.1918,-6.204,-6.2036,-6.2019,-6.202,-6.2089,-6.2082,-6.2309,-6.234,-6.2155,-6.2157,-6.2158,0,-6.1175,-6.1246,-6.1321,-6.137,-6.1407,-6.1486,-6.1536,-6.1558,-6.161,-6.1688,-6.1743,-6.1827,-6.1895,-6.2031,-6.2071,-6.2149,-6.2146,-6.222,-6.2158,-6.2153,-6.2148,-6.2143,-6.2151,-6.2232,-6.2234,-6.2235,-6.2236,0,-6.1338,-6.135,-6.1423,-6.1502,-6.1562,-6.1625,-6.1686,-6.1726,-6.1756,-6.1816,-6.1903,-6.1956,-6.2062,-6.2145,-6.2226,-6.2262,-6.2255,-6.2256,-6.2277,-6.2274,-6.2262,-6.227,-6.2051,-6.2251,-6.2249,-6.2248,-6.2247,-6.2247,-6.1452,-6.1515,-6.1578,-6.166,-6.1708,-6.1765,-6.1829,-6.1865,-6.1938,-6.2026,-6.2034,-6.2128,-6.219,-6.2297,-6.2337,-6.2411,-6.239,-6.242,-6.2427,-6.2434,-6.244,-6.225,-6.2426,-6.2426,-6.2425,-6.2425,-6.2425,0,-6.1615,-6.1655,-6.173,-6.1816,-6.1881,-6.1869,-6.1936,-6.1991,-6.2074,-6.2133,-6.2201,-6.2301,-6.2383,-6.243,-6.2511,-6.2562,-6.256,-6.2582,-6.2579,-6.2587,-6.2454,-6.2428,-6.2582,-6.2582,-6.2582,-6.2582,-6.2582,-6.2582,-6.1707,-6.1814,-6.1834,-6.1965,-6.2005,-6.2098,-6.2137,-6.219,-6.2237,-6.235,-6.2418,-6.2449,-6.2503,-6.2588,-6.2663,-6.2674,-6.2705,-6.2729,-6.2738,-6.2613,-6.2597,-6.2581,-6.2557,-6.2735,-6.2735,-6.2866,-6.2867,-6.2868]}]]